KAUSKHYI

Guest
Details From KAUS - Austin Bergstrom Intl
To KHYI - SAN MARCOS MUNI
Flight Number -
Tags decoded
Created
Modified
Stats Distance 21 nm / 38 km
Max Altitude 0 ft / 0 m
Waypoints 2
Social Downloads 1
Likes 0
Share VATSIM

Download

Looking for another format? Having issues loading an existing format? Contact us
Advertisement - Login to hide

Notes

Requested: KAUS KHYI

Route

KAUS KHYI

ID Type Via Altitude Latitude Longitude Leg Dist Tot Dist Heading (true) Name
O KAUS APT - 0 ft / 0 m 30.19412˚ -97.66824˚ - 0 nm - Austin Bergstrom Intl
O KHYI APT - 0 ft / 0 m 29.89282˚ -97.86270˚ 20 nm 20 nm 209° / 209° SAN MARCOS MUNI

Altitude Profile

Advertisement - Login to hide

KAUS

Details ICAO KAUS (AUS)
Name Austin Bergstrom Intl
Region United States
Timezone America/Chicago (UTC-5.0)
Stats Elevation 542 ft / 165 m (AMSL)
Location 30.194121° -97.668244°
Runways 2
Magnetic Variation 3.760° E

METAR

KAUS 271853Z 18008KT 10SM FEW055 SCT100 SCT250 34/20 A2982 RMK AO2 SLP084 T03440200

Decode

TAF

KAUS 271741Z 2718/2824 15007KT P6SM FEW100 FEW250 FM272300 13009KT P6SM FEW250 FM280600 17003KT P6SM FEW250

Decode

Departure Runways

ID Width Length Bearing (true) Bearing (mag) Surface Threshold Offset Overrun Length
17L 151 ft / 46 m 9,030 ft / 2,752 m 178.70° 174.94° Concrete 0 ft / 0 m 390 ft / 119 m
17R 151 ft / 46 m 12,289 ft / 3,746 m 178.69° 174.93° Concrete 0 ft / 0 m 1,001 ft / 305 m
35L 151 ft / 46 m 12,289 ft / 3,746 m 358.69° 354.93° Concrete 0 ft / 0 m 1,001 ft / 305 m
35R 151 ft / 46 m 9,030 ft / 2,752 m 358.70° 354.94° Concrete 0 ft / 0 m 390 ft / 119 m

KHYI

Details ICAO KHYI
Name SAN MARCOS MUNI
Region United States
Timezone America/Chicago (UTC-5.0)
Stats Elevation 597 ft / 182 m (AMSL)
Location 29.892816° -97.862699°
Runways 3
Magnetic Variation 3.868° E

METAR

KHYI 271856Z VRB03KT 10SM CLR 35/20 A2983 RMK AO2 SLP091 T03500200 $

Decode

TAF

Not found

Destination Runways

ID Width Length Bearing (true) Bearing (mag) Surface Threshold Offset Overrun Length
08 100 ft / 30 m 6,319 ft / 1,926 m 87.84° 83.97° Asphalt 0 ft / 0 m 0 ft / 0 m
13 150 ft / 46 m 5,606 ft / 1,709 m 133.01° 129.14° Asphalt 0 ft / 0 m 0 ft / 0 m
17 100 ft / 30 m 5,230 ft / 1,594 m 177.88° 174.01° Asphalt 0 ft / 0 m 0 ft / 0 m
26 100 ft / 30 m 6,319 ft / 1,926 m 267.85° 263.98° Asphalt 0 ft / 0 m 0 ft / 0 m
31 150 ft / 46 m 5,606 ft / 1,709 m 313.02° 309.15° Asphalt 0 ft / 0 m 0 ft / 0 m
35 100 ft / 30 m 5,230 ft / 1,594 m 357.88° 354.01° Asphalt 0 ft / 0 m 0 ft / 0 m

Approach Navaids

Runway Type Ident Frequency Range Bearing (true) Bearing (mag) Slope Elevation
13 Localiser IRUM 108.70 MHz 18 nm / 33 km 133.02° 129.15° - 597 ft / 182 m (AMSL)
13 Glidescope IRUM 108.70 MHz 10 nm / 19 km 133.01° 129.15° 3.00° 591 ft / 180 m (AMSL)

Popular Alternatives